Wetbulb
52.02 51.93 52.01 52.77 52.60 52.76 52.48 52.62 52.89 53.28 52.99 52.92 53.05 52.99 53.16 53.32 53.73 53.62 53.60 53.57 53.41 53.03 52.89 53.12 53.69 54.14 53.06 46.71 44.16 53.57 60.00 60.58 60.14 56.46 53.31 52.42 50.51 49.85 47.73 49.01 49.66 47.76 48.63 50.27 50.86 50.75 50.19
51.56 51.64 51.96 52.64 52.43 52.85 52.44 52.55 52.25 52.95 53.02 52.94 53.43 53.33 52.92 52.77 52.63 53.05 53.88 53.74 53.33 53.16 52.71 52.81 52.91 53.45 49.68 41.74 49.11 54.14 55.47 56.46 56.57 55.53 53.42 53.58 52.16 53.03 49.30 49.05 48.20 49.28 49.50 49.47 49.95 49.85 50.52
52.26 51.34 51.81 52.11 52.00 51.82 51.90 51.65 51.79 52.34 52.76 52.49 52.86 53.04 53.02 52.53 52.24 52.07 52.67 52.95 52.56 52.69 53.20 52.73 52.47 52.34 47.09 45.04 49.85 54.01 53.52 52.35 55.55 54.07 53.40 54.71 54.51 50.28 50.02 48.07 50.91 49.29 46.34 48.11 48.67 49.48 48.62
52.20 52.25 51.59 51.43 51.94 51.86 51.21 50.86 50.83 51.30 52.32 52.57 52.59 52.98 52.96 52.81 52.77 52.44 52.36 52.00 52.17 52.29 52.71 52.91 52.36 50.83 43.88 51.75 53.58 51.25 51.59 49.69 50.54 54.42 53.47 54.01 54.19 51.90 50.11 50.94 48.74 46.51 47.25 43.80 47.56 48.10 48.60
51.80 52.22 51.78 50.92 51.28 51.00 50.66 50.75 50.75 50.68 51.32 52.00 52.40 53.28 53.14 52.88 52.62 52.57 52.28 52.12 51.84 52.20 53.36 52.94 50.61 48.61 43.10 52.50 48.50 51.06 51.64 48.02 48.31 50.91 54.65 54.22 53.27 49.69 49.71 45.86 44.65 46.04 42.56 44.07 45.26 48.89 49.19
50.47 50.73 51.17 51.12 50.74 50.24 50.19 50.23 50.53 50.49 51.24 51.62 52.02 52.54 52.81 52.59 52.49 52.27 51.53 51.57 50.98 52.25 53.02 52.62 51.21 44.15 46.80 43.67 47.71 52.32 55.02 51.68 48.23 47.86 48.88 50.78 49.97 46.89 46.83 44.74 38.51 42.37 42.82 44.84 43.76 46.79 47.59
50.87 50.61 50.49 50.64 50.05 49.50 49.59 49.96 49.88 50.63 50.91 51.26 51.60 51.73 52.50 52.34 52.45 52.15 50.47 49.40 46.25 45.40 45.98 43.80 45.24 44.12 46.49 49.91 52.90 52.11 53.91 51.95 49.79 45.81 42.88 48.00 44.68 42.14 44.24 46.06 46.58 46.14 44.46 43.80 45.85 46.75 45.50
49.74 49.79 50.02 50.20 50.20 49.11 49.52 49.73 49.96 49.89 50.23 50.89 51.04 51.54 51.99 52.03 52.29 51.63 50.17 44.94 43.55 43.81 37.86 45.27 45.18 45.03 47.37 49.21 43.82 48.79 53.47 48.00 46.86 41.77 45.22 45.20 41.34 44.96 47.04 47.54 45.80 45.14 43.04 43.17 45.90 46.81 45.46
49.01 49.10 49.21 49.14 48.95 49.40 49.05 49.10 49.03 49.54 50.00 50.19 50.49 51.15 51.49 51.65 51.77 49.60 47.99 44.65 48.87 46.99 39.29 40.57 45.28 44.27 44.53 46.32 42.45 44.63 50.03 47.19 45.73 43.30 43.02 42.85 44.50 46.16 45.69 44.63 43.71 44.39 42.84 43.31 43.04 45.71 46.61
48.35 49.05 48.51 48.84 49.15 49.04 48.19 48.36 48.60 48.29 49.29 49.68 50.53 51.02 51.16 51.01 48.12 48.78 47.24 49.95 49.85 48.95 34.86 36.72 40.38 43.86 45.36 44.89 40.52 46.23 47.82 47.10 45.14 42.37 43.65 43.29 46.40 44.52 44.13 42.74 44.78 41.35 46.08 44.66 43.52 42.61 39.33
47.88 47.99 48.35 48.77 49.02 48.66 48.61 48.96 47.73 48.29 48.30 48.82 49.87 50.08 50.79 50.52 48.75 46.49 47.13 51.21 49.62 47.74 25.52 37.49 40.62 48.58 46.26 42.11 42.34 43.35 47.81 44.11 39.37 41.43 42.52 41.40 42.55 42.36 41.42 42.52 45.22 42.87 46.42 44.33 44.27 42.89 42.48
47.09 47.42 47.57 47.96 48.66 48.24 48.53 48.49 48.11 48.01 47.62 48.04 48.96 49.42 50.28 50.04 50.12 49.84 51.47 50.39 48.10 34.59 24.71 34.74 41.92 41.22 40.03 41.87 40.67 44.99 43.08 45.59 45.27 39.68 43.41 42.82 47.32 45.40 44.41 45.61 46.27 46.73 44.18 43.74 43.89 42.37 36.02
46.45 46.84 46.93 47.19 48.02 48.15 48.73 48.10 47.88 47.49 47.26 47.61 48.67 49.31 49.49 51.18 43.75 51.17 50.48 45.40 33.56 27.65 38.04 34.32 36.03 39.47 39.11 38.98 39.87 40.93 39.74 36.85 36.31 31.80 33.76 40.19 41.40 45.53 46.15 42.05 45.06 44.81 42.59 37.23 35.19 35.04 34.76
46.10 46.14 46.48 46.93 47.00 47.85 47.66 47.76 46.95 47.36 47.14 47.45 48.38 48.68 49.78 50.10 50.96 49.08 47.60 37.27 26.33 31.82 33.86 39.98 38.42 38.85 35.90 39.34 39.90 40.28 38.21 37.30 38.96 39.02 37.11 33.44 32.59 41.01 45.12 43.89 40.93 41.77 42.65 38.09 31.21 34.15 37.97
45.14 45.62 45.78 46.09 46.44 46.52 47.44 47.47 47.47 47.26 47.05 47.76 47.86 48.25 48.66 50.55 51.77 48.73 40.33 29.07 30.72 32.78 37.03 36.53 38.08 34.74 35.62 38.60 38.93 39.21 38.75 37.31 39.76 40.70 34.97 34.63 35.27 44.02 44.81 45.53 45.37 41.15 38.65 44.46 39.22 40.42 36.72
44.76 44.91 45.71 45.61 46.21 46.48 46.56 47.01 47.36 46.88 46.57 47.19 44.76 44.41 45.28 51.70 52.14 43.34 34.91 29.92 32.91 38.77 38.41 38.01 32.35 35.40 32.04 35.56 36.63 38.53 38.89 41.48 40.64 43.45 43.09 40.01 34.60 41.22 43.34 46.39 46.97 45.71 47.28 38.76 40.05 31.53 31.38
44.28 44.26 44.48 44.92 45.72 45.58 45.77 46.03 46.61 46.30 46.28 46.44 43.72 39.73 47.69 51.93 49.49 38.27 29.52 31.99 34.93 39.11 38.26 35.42 34.27 33.85 34.39 33.65 35.99 36.91 38.18 39.22 40.16 42.81 44.37 41.21 39.28 39.10 42.25 40.87 41.30 42.69 41.63 42.97 43.30 40.82 34.85
44.04 44.24 44.61 44.62 44.99 45.19 45.22 45.24 46.29 45.94 46.27 44.67 40.78 32.79 48.08 49.60 35.73 35.47 31.79 35.14 37.22 37.05 39.18 37.15 37.70 36.74 35.19 35.60 34.42 34.90 36.01 38.09 41.59 42.87 40.01 43.52 40.52 37.06 39.45 44.04 45.90 44.48 42.61 43.21 38.07 36.96 39.74
44.19 44.05 44.13 44.40 44.15 44.76 45.10 44.83 45.56 46.16 46.09 43.84 36.59 38.23 47.46 45.79 29.92 30.50 35.06 35.28 36.99 36.13 36.71 36.24 35.62 37.44 38.25 35.50 32.53 35.61 36.82 41.18 41.13 40.08 38.83 42.69 38.88 33.31 35.42 40.80 44.06 42.48 43.77 43.74 43.66 42.56 38.25
44.51 44.47 44.47 44.03 43.86 44.03 44.23 44.54 45.58 45.69 46.04 44.65 36.16 31.77 38.12 40.03 38.38 35.98 32.00 33.00 32.77 37.74 36.78 37.41 36.58 37.88 36.60 34.96 37.65 34.68 35.65 39.34 41.08 40.31 42.60 43.29 40.51 36.86 32.50 36.00 40.48 38.48 40.64 42.59 42.07 37.65 38.46
44.98 45.00 44.86 44.94 44.77 44.39 44.39 44.66 45.19 45.62 46.17 44.18 35.22 33.21 37.99 30.51 32.85 34.84 34.87 34.83 33.02 32.44 36.40 37.53 34.92 35.54 34.83 32.33 33.92 33.67 36.37 37.15 39.60 41.02 42.47 42.10 35.57 37.56 39.19 40.24 39.77 39.36 39.39 40.44 39.15 40.62 37.41
45.36 45.68 45.42 45.19 45.12 45.12 44.94 45.20 45.51 45.52 45.81 41.62 32.47 34.65 36.65 34.54 36.27 33.58 34.39 34.06 33.84 34.98 35.07 33.22 33.50 35.70 36.24 33.36 34.77 32.90 35.68 35.72 34.78 38.92 38.46 41.05 36.12 37.83 35.07 39.15 39.19 37.27 40.19 41.05 41.28 41.48 41.77
45.64 46.39 46.41 45.68 45.92 45.69 45.52 45.34 45.53 45.33 45.45 39.84 40.64 40.35 37.57 33.66 34.87 32.76 33.33 35.26 35.18 37.00 37.45 37.77 36.50 34.96 34.47 36.53 39.64 40.33 40.85 40.20 39.11 36.92 35.52 35.95 37.72 36.06 31.99 37.51 37.66 33.55 38.60 40.44 41.89 44.66 44.10
46.43 46.66 46.82 46.61 46.52 46.57 46.20 45.50 45.33 45.48 45.62 42.59 42.01 39.78 33.04 29.16 32.43 33.49 34.99 36.53 35.03 36.39 34.50 36.43 37.69 35.55 38.93 43.32 42.62 42.08 40.76 40.04 40.39 39.59 40.22 35.79 36.27 36.38 33.04 34.66 26.18 38.56 43.66 44.49 43.39 43.56 45.69
46.06 46.45 46.66 46.71 46.87 46.84 46.57 46.08 45.64 45.38 45.58 44.29 43.92 40.71 35.34 30.13 33.51 33.40 34.14 35.93 37.53 37.92 35.88 36.05 38.08 40.55 42.96 39.49 34.41 32.40 33.80 34.46 36.85 39.30 39.04 39.48 36.85 33.71 30.77 30.86 35.17 37.89 40.68 41.06 40.30 39.94 45.77
46.10 46.69 46.98 46.98 46.66 46.57 46.50 46.41 46.13 45.71 45.57 44.95 44.08 45.19 39.86 32.63 32.66 36.47 35.12 36.44 34.51 35.02 35.01 36.21 39.77 43.40 41.46 36.46 32.21 28.29 27.17 31.08 31.06 34.68 39.91 38.88 39.08 34.86 32.69 27.47 25.86 37.04 43.47 46.80 45.20 36.34 45.86
46.24 46.54 47.12 47.25 47.00 46.73 46.72 46.41 46.36 46.19 45.85 44.52 43.10 46.33 40.21 34.11 37.65 39.13 35.06 35.39 39.07 37.01 34.58 36.08 37.53 37.52 39.97 34.87 31.12 29.46 29.08 34.58 29.65 30.22 29.61 30.94 32.54 29.56 31.22 30.60 34.75 41.68 44.01 46.99 34.62 37.16 45.54
46.49 46.77 46.78 46.54 46.58 46.78 47.00 46.54 46.24 46.43 46.13 43.73 41.50 46.41 40.36 34.61 37.90 41.37 41.26 38.33 39.03 38.78 33.91 37.16 35.51 35.90 34.58 31.53 31.69 31.87 31.47 34.02 32.79 35.40 33.23 32.43 31.27 30.91 32.03 29.09 27.33 44.67 43.82 38.44 42.82 46.17 46.94
46.40 46.52 46.45 46.52 46.57 46.73 46.75 46.59 46.11 45.97 46.29 45.47 38.84 44.98 45.28 38.05 38.43 44.48 45.07 45.67 44.31 42.99 39.61 38.78 37.09 37.59 38.34 34.66 35.68 35.96 33.10 35.98 33.68 30.02 38.71 32.64 37.23 34.75 36.44 36.32 44.00 45.64 44.62 47.08 47.57 46.36 47.14
MSLP
1023.72 1023.52 1023.45 1023.43 1023.18 1022.94 1022.65 1022.43 1022.42 1022.38 1022.16 1021.92 1021.94 1021.57 1021.16 1020.80 1020.49 1020.22 1019.84 1019.44 1019.05 1018.89 1018.46 1018.18 1017.84 1017.56 1016.23 1013.73 1011.30 1010.59 1011.00 1011.00 1010.62 1010.37 1009.59 1009.19 1008.98 1008.70 1007.93 1007.45 1007.28 1007.19 1006.18 1006.15 1006.39 1006.55 1006.67
1023.51 1023.38 1023.25 1023.14 1022.87 1022.62 1022.42 1022.34 1022.22 1022.33 1022.22 1021.69 1021.47 1021.44 1020.92 1020.59 1020.25 1020.01 1019.62 1019.17 1018.74 1018.39 1017.90 1017.98 1017.59 1017.70 1016.04 1013.22 1010.54 1010.88 1010.80 1010.52 1010.16 1010.00 1009.47 1009.01 1008.47 1008.48 1008.05 1007.37 1007.11 1006.41 1006.25 1005.97 1005.98 1006.12 1006.28
1023.21 1022.98 1022.99 1022.84 1022.61 1022.50 1022.27 1022.24 1022.27 1022.18 1021.83 1021.47 1021.23 1021.21 1020.70 1020.40 1020.07 1019.78 1019.14 1018.83 1018.45 1017.87 1017.32 1017.35 1017.13 1017.19 1015.36 1011.96 1010.87 1010.72 1010.95 1010.41 1010.28 1009.96 1009.28 1008.97 1008.82 1008.79 1007.97 1007.51 1007.31 1006.71 1006.42 1005.69 1005.49 1005.59 1005.57
1022.96 1022.58 1022.51 1022.40 1022.25 1022.28 1022.23 1022.45 1022.22 1022.20 1021.66 1021.32 1021.14 1020.99 1020.58 1019.94 1019.77 1019.38 1018.87 1018.47 1017.61 1017.20 1016.47 1016.11 1016.64 1016.50 1013.41 1011.04 1011.03 1010.58 1010.89 1010.21 1010.12 1010.43 1009.84 1009.28 1009.18 1008.88 1008.38 1007.65 1007.32 1006.66 1006.02 1004.83 1004.53 1004.76 1005.12
1022.53 1022.41 1022.16 1022.05 1022.04 1022.24 1022.08 1022.12 1022.00 1021.95 1021.68 1021.29 1020.98 1020.83 1020.46 1019.71 1019.29 1019.00 1018.37 1017.84 1016.70 1016.31 1015.84 1015.59 1016.09 1015.41 1011.41 1010.45 1010.74 1009.75 1010.10 1009.62 1009.41 1009.85 1009.73 1009.38 1009.05 1008.42 1008.21 1007.69 1006.59 1005.86 1004.28 1003.88 1004.10 1004.61 1004.70
1022.11 1021.97 1022.00 1021.78 1021.75 1021.88 1021.79 1021.82 1021.66 1021.57 1021.54 1021.13 1020.95 1020.72 1020.11 1019.44 1019.09 1018.58 1017.98 1016.74 1016.00 1016.01 1015.34 1015.24 1015.05 1015.08 1011.04 1009.81 1009.35 1009.30 1009.49 1009.81 1008.92 1009.14 1009.51 1009.01 1008.47 1007.74 1007.46 1006.53 1004.57 1004.34 1004.10 1003.72 1003.69 1003.82 1004.51
1021.83 1021.47 1021.51 1021.24 1021.33 1021.41 1021.46 1021.43 1021.32 1021.27 1021.20 1020.95 1020.79 1020.51 1019.89 1019.24 1019.01 1018.48 1017.37 1015.33 1015.30 1015.28 1014.63 1013.94 1012.91 1012.28 1010.60 1010.10 1009.18 1008.87 1009.38 1009.21 1008.28 1008.57 1007.85 1007.60 1007.21 1006.00 1005.36 1005.48 1005.07 1004.32 1004.05 1003.47 1003.19 1003.96 1004.41
1021.28 1021.50 1021.25 1020.95 1020.95 1021.13 1021.07 1021.05 1021.09 1021.06 1021.06 1020.56 1020.43 1020.28 1019.79 1019.05 1018.89 1018.16 1017.63 1015.98 1017.52 1017.86 1015.04 1013.22 1011.88 1011.30 1010.79 1010.81 1009.80 1008.57 1008.99 1008.49 1007.70 1007.11 1007.00 1006.74 1005.55 1005.53 1005.88 1005.58 1005.46 1004.85 1004.29 1003.60 1003.63 1004.16 1004.48
1020.83 1020.85 1020.82 1020.58 1020.51 1020.57 1020.70 1020.63 1020.79 1020.71 1020.93 1020.23 1020.41 1020.00 1019.29 1018.82 1018.68 1018.16 1017.38 1017.11 1017.56 1017.38 1015.42 1011.42 1010.73 1010.35 1010.08 1010.24 1009.31 1008.31 1008.86 1007.89 1007.11 1006.77 1006.04 1005.08 1004.57 1005.41 1005.69 1005.78 1005.36 1004.57 1004.13 1003.70 1003.83 1003.98 1004.04
1020.43 1020.28 1020.29 1020.24 1020.11 1020.11 1020.21 1020.43 1020.13 1020.59 1020.64 1020.21 1019.95 1019.50 1018.97 1018.86 1018.83 1017.91 1016.82 1017.45 1017.26 1017.02 1015.00 1010.87 1010.00 1009.26 1009.37 1009.16 1008.75 1008.64 1008.13 1007.74 1006.88 1006.28 1006.00 1005.29 1004.77 1005.05 1005.32 1004.92 1004.94 1003.92 1004.03 1004.15 1004.30 1004.13 1003.05
1019.96 1019.83 1019.80 1019.68 1019.53 1019.62 1019.69 1020.00 1020.24 1020.14 1020.28 1020.03 1019.34 1019.06 1018.95 1018.64 1018.08 1017.41 1017.07 1017.06 1017.00 1016.39 1013.02 1009.77 1008.94 1008.53 1008.52 1008.44 1007.54 1007.29 1007.49 1007.69 1006.91 1006.43 1006.43 1004.73 1004.70 1004.44 1004.47 1004.47 1004.55 1003.98 1003.97 1004.32 1004.08 1003.58 1003.31
1019.64 1019.46 1019.34 1019.32 1019.14 1019.21 1019.30 1019.70 1019.68 1019.75 1019.78 1019.44 1018.87 1018.93 1018.85 1017.87 1017.98 1017.26 1016.94 1016.92 1016.29 1014.94 1011.15 1009.08 1008.45 1008.29 1008.39 1007.91 1007.52 1007.24 1007.10 1007.33 1006.80 1006.88 1006.56 1005.87 1005.06 1004.73 1004.25 1004.46 1004.53 1004.43 1004.63 1004.47 1004.24 1003.69 1002.64
1018.85 1018.91 1018.74 1018.65 1018.72 1018.64 1018.72 1018.94 1019.04 1019.12 1019.15 1018.85 1018.51 1018.68 1018.72 1017.53 1017.54 1017.25 1016.94 1016.26 1015.01 1012.71 1010.19 1009.33 1008.78 1008.26 1007.90 1007.17 1007.17 1007.14 1007.16 1007.41 1006.34 1006.69 1005.95 1005.79 1005.23 1004.66 1004.43 1004.13 1004.54 1004.39 1004.17 1003.45 1003.44 1002.92 1001.42
1018.25 1018.21 1018.14 1018.12 1018.01 1018.18 1018.14 1018.19 1018.18 1018.49 1018.48 1018.62 1018.20 1018.34 1017.69 1017.06 1017.19 1017.44 1016.74 1015.84 1013.63 1011.47 1010.51 1009.79 1009.26 1008.38 1007.61 1006.93 1006.59 1006.71 1006.94 1006.37 1006.69 1005.86 1005.19 1005.09 1004.65 1004.67 1004.14 1003.50 1003.50 1003.59 1003.20 1002.33 1001.72 1001.34 1000.75
1017.47 1017.53 1017.30 1017.50 1017.48 1017.49 1017.47 1017.55 1017.43 1017.92 1018.16 1018.25 1018.04 1017.35 1016.91 1016.31 1016.93 1017.53 1017.04 1015.30 1012.39 1011.70 1011.21 1010.57 1009.43 1008.39 1007.62 1007.03 1006.90 1006.30 1006.31 1006.10 1005.66 1005.56 1004.89 1003.72 1003.15 1002.78 1003.20 1003.52 1003.28 1003.73 1003.37 1003.18 1002.53 1002.37 1001.65
1016.75 1016.63 1016.72 1016.62 1016.73 1016.69 1016.86 1016.91 1016.93 1017.43 1017.82 1017.96 1017.66 1016.89 1015.63 1015.66 1016.60 1017.50 1017.13 1014.64 1013.10 1012.17 1011.90 1011.27 1010.27 1009.60 1008.48 1007.72 1006.95 1006.30 1006.17 1006.58 1005.89 1005.56 1004.92 1004.18 1003.07 1002.68 1002.44 1002.88 1002.47 1002.04 1002.02 1002.60 1002.76 1001.82 1000.70
1015.76 1015.77 1015.76 1015.84 1015.83 1016.06 1016.21 1016.37 1016.63 1016.91 1017.37 1017.68 1017.48 1016.18 1014.61 1015.15 1016.42 1016.97 1015.54 1014.20 1013.22 1012.37 1012.35 1011.92 1011.18 1010.50 1009.65 1008.82 1007.90 1007.06 1006.70 1007.13 1006.48 1005.37 1004.73 1004.50 1003.77 1003.13 1002.85 1002.29 1001.43 1001.79 1001.80 1001.76 1001.41 1001.40 1000.35
1014.88 1014.84 1014.81 1014.97 1015.16 1015.20 1015.55 1015.87 1016.24 1016.55 1016.95 1017.43 1016.86 1015.70 1014.72 1015.22 1015.96 1015.64 1015.00 1013.77 1013.37 1012.43 1012.24 1012.16 1011.84 1011.25 1010.41 1009.73 1008.78 1007.98 1007.50 1007.42 1007.33 1006.14 1005.13 1005.04 1004.09 1002.88 1002.27 1002.09 1001.72 1001.80 1001.71 1001.71 1001.23 1000.95 1000.96
1013.75 1013.80 1013.93 1013.95 1014.15 1014.50 1014.88 1015.27 1015.66 1016.02 1016.31 1016.35 1015.90 1015.06 1015.04 1015.06 1014.53 1014.59 1014.74 1013.60 1012.73 1012.36 1012.08 1011.86 1011.59 1011.42 1011.05 1010.38 1009.67 1008.78 1008.37 1008.18 1008.01 1007.36 1007.02 1006.04 1004.85 1003.70 1002.90 1002.40 1002.07 1001.65 1001.80 1001.94 1001.85 1001.66 1000.77
1012.49 1012.56 1012.68 1012.90 1013.19 1013.61 1014.03 1014.45 1014.80 1015.28 1015.65 1016.33 1016.01 1015.11 1014.61 1014.54 1013.98 1013.20 1013.44 1013.02 1012.56 1012.38 1012.09 1012.04 1011.78 1011.82 1011.19 1010.71 1010.33 1009.45 1008.92 1008.60 1008.34 1007.97 1007.79 1007.11 1005.97 1005.00 1003.69 1003.10 1003.13 1003.03 1003.00 1002.83 1002.53 1001.82 1001.23
1011.20 1011.30 1011.49 1011.77 1012.13 1012.57 1013.04 1013.49 1013.96 1014.42 1014.86 1015.77 1015.38 1013.97 1012.98 1013.13 1013.19 1012.85 1012.34 1011.79 1011.66 1011.59 1012.08 1011.84 1011.63 1011.60 1011.27 1010.62 1010.09 1009.82 1009.52 1009.15 1008.76 1008.52 1007.84 1007.31 1006.25 1006.15 1005.21 1004.68 1004.13 1003.55 1003.10 1002.73 1002.42 1002.29 1001.91
1009.66 1009.69 1009.92 1010.28 1010.75 1011.27 1011.85 1012.37 1012.77 1013.44 1014.08 1014.69 1014.11 1013.66 1013.46 1012.77 1012.52 1012.32 1012.09 1010.95 1010.62 1010.67 1011.22 1011.19 1011.14 1010.96 1011.10 1010.55 1010.21 1009.76 1009.62 1009.64 1009.23 1008.85 1008.49 1008.07 1006.69 1006.29 1005.68 1005.09 1004.34 1003.48 1002.89 1002.40 1002.01 1001.67 1001.32
1008.34 1008.31 1008.39 1008.69 1009.02 1009.60 1010.29 1010.98 1011.55 1012.25 1012.95 1012.98 1013.15 1013.35 1013.15 1012.16 1011.60 1011.49 1010.65 1009.89 1009.94 1010.25 1010.69 1010.94 1011.02 1011.32 1010.89 1010.49 1010.37 1010.35 1010.38 1010.28 1010.03 1009.65 1009.21 1008.83 1007.82 1006.92 1006.02 1005.44 1004.45 1003.28 1002.28 1001.68 1001.19 1000.81 1000.61
1007.00 1006.92 1006.95 1007.08 1007.37 1007.82 1008.45 1009.27 1010.13 1010.80 1011.40 1011.81 1011.98 1012.73 1012.94 1011.47 1011.32 1010.22 1010.07 1010.30 1010.30 1010.29 1010.25 1010.96 1011.24 1011.23 1011.25 1010.93 1011.29 1010.72 1010.25 1009.85 1009.62 1009.49 1009.56 1008.93 1008.32 1008.00 1006.73 1006.26 1004.29 1002.14 1001.75 1001.23 1000.95 1000.83 1000.59
1005.59 1005.47 1005.43 1005.48 1005.67 1006.10 1006.71 1007.52 1008.39 1009.39 1010.22 1011.06 1011.38 1011.57 1011.66 1010.92 1010.51 1010.07 1009.89 1009.65 1009.68 1010.04 1010.51 1010.90 1011.17 1011.55 1011.92 1011.98 1011.70 1010.25 1009.42 1009.18 1008.19 1008.22 1008.70 1009.07 1008.75 1008.20 1007.31 1005.79 1003.85 1002.57 1001.90 1001.54 1001.19 1001.09 1001.65
1004.06 1003.85 1003.74 1003.72 1003.95 1004.37 1004.95 1005.70 1006.63 1007.68 1008.89 1009.99 1010.23 1010.81 1010.98 1010.90 1009.22 1009.25 1009.22 1009.34 1009.33 1009.35 1010.30 1010.93 1011.95 1012.07 1012.14 1012.21 1011.66 1009.57 1008.24 1007.47 1007.08 1007.23 1007.93 1008.58 1008.81 1008.37 1007.57 1005.80 1003.70 1002.39 1002.12 1002.05 1001.69 1001.40 1001.90
1002.45 1002.20 1002.02 1001.93 1002.27 1002.73 1003.24 1003.87 1004.87 1006.01 1007.20 1008.51 1009.01 1009.90 1010.76 1010.19 1009.24 1008.51 1008.17 1008.13 1008.97 1008.89 1009.72 1010.66 1011.75 1012.19 1012.31 1011.69 1010.55 1009.10 1007.97 1007.41 1006.63 1006.45 1007.70 1007.93 1008.09 1007.65 1006.92 1005.42 1003.69 1003.06 1002.54 1002.62 1002.22 1002.85 1002.74
1000.83 1000.60 1000.50 1000.51 1000.68 1000.95 1001.48 1002.35 1003.30 1004.42 1005.67 1007.04 1007.93 1008.76 1009.53 1009.93 1009.29 1008.48 1008.22 1007.89 1007.71 1008.49 1009.10 1010.45 1011.49 1011.52 1011.53 1010.94 1009.69 1008.64 1007.75 1007.02 1006.52 1005.93 1006.24 1006.26 1006.56 1006.49 1006.31 1005.17 1003.90 1003.33 1002.96 1002.86 1003.46 1003.48 1003.39
999.42 999.27 999.21 999.26 999.30 999.58 1000.04 1001.00 1001.96 1003.12 1004.41 1006.05 1007.16 1008.10 1009.14 1009.90 1009.38 1008.44 1007.89 1007.71 1007.55 1007.83 1008.93 1009.70 1009.30 1009.51 1009.41 1009.13 1008.42 1007.81 1007.33 1007.00 1006.15 1005.26 1005.27 1005.19 1004.82 1004.66 1004.48 1003.82 1003.71 1004.07 1003.92 1004.37 1004.78 1004.73 1004.60
Wind_Speed
11 10 12 11 9 10 10 9 10 9 9 9 11 12 13 14 15 15 13 13 14 16 17 16 16 15 13 6 11 5 3 2 10 10 13 14 15 18 17 13 12 18 14 12 14 14 12
10 11 10 11 10 11 9 8 8 10 11 10 10 12 13 14 15 16 16 15 15 16 17 17 14 12 7 12 5 3 3 2 5 12 10 12 9 14 11 14 15 3 15 15 15 15 13
12 9 11 10 10 10 9 10 11 13 12 11 11 12 12 14 15 16 16 16 18 20 20 20 12 10 10 16 6 4 4 4 3 9 13 11 10 10 5 12 14 11 15 15 16 18 16
15 12 10 8 11 10 10 10 11 14 14 12 13 13 12 12 14 15 16 18 20 22 22 16 11 8 11 10 9 14 13 17 14 11 8 7 9 13 11 4 6 11 12 13 4 10 8
15 15 11 10 10 10 9 11 12 14 14 14 13 13 13 12 12 14 16 21 22 18 12 4 8 10 11 6 6 10 18 12 14 13 10 4 7 14 11 15 14 14 15 12 9 10 6
17 15 14 12 9 11 11 12 11 14 13 13 13 13 12 13 13 12 15 23 17 7 4 5 0 7 9 4 3 2 5 12 7 13 11 12 10 12 15 17 19 17 16 12 13 7 12
17 16 17 15 12 10 14 13 13 13 13 13 12 14 14 13 13 12 15 8 3 7 3 9 3 10 12 7 7 7 7 9 7 16 18 20 15 19 26 23 19 15 14 15 8 1 7
17 16 14 14 12 11 13 14 12 12 14 12 12 13 13 12 10 11 9 4 5 4 15 17 22 27 23 6 6 9 7 11 11 17 19 11 20 21 17 17 19 18 18 18 12 7 8
16 16 17 16 16 14 13 14 12 12 14 13 14 14 12 11 8 6 4 3 5 10 9 10 9 12 11 17 16 9 12 10 12 17 21 19 9 20 16 15 19 21 20 17 15 7 11
17 15 17 17 18 15 11 16 11 12 14 13 13 13 11 11 7 4 3 2 7 5 6 3 3 3 5 7 10 23 11 13 10 15 13 16 19 10 19 22 18 21 18 16 17 12 10
18 17 17 18 17 12 11 13 12 11 12 13 12 13 11 6 5 6 5 8 8 3 8 4 3 2 6 9 8 8 26 20 21 9 5 8 13 22 19 18 18 18 13 12 15 15 14
19 18 18 18 16 13 11 13 12 11 12 12 11 13 11 5 3 6 7 7 5 5 6 3 2 2 4 11 4 4 7 16 9 18 13 19 4 11 19 11 16 5 8 8 6 7 11
20 20 19 18 17 17 14 14 10 11 12 12 11 12 10 4 1 1 5 4 6 7 5 4 6 6 10 4 5 5 10 15 12 10 19 18 18 8 8 18 12 16 13 7 8 8 8
21 20 18 20 17 17 18 12 8 12 10 12 10 10 7 6 7 2 4 5 9 3 6 10 7 13 4 5 5 11 6 12 18 16 12 19 12 21 13 14 8 20 15 6 8 8 6
20 22 20 18 18 17 15 13 9 10 9 10 10 7 5 5 9 2 4 7 3 4 5 9 12 4 2 2 5 6 4 3 6 17 10 15 21 14 16 15 15 9 17 17 17 8 7
24 21 22 20 20 17 15 15 11 10 9 7 4 5 7 7 12 4 3 9 7 3 4 6 5 6 5 9 4 4 4 8 3 4 15 5 7 11 22 16 20 14 12 8 10 9 14
22 24 21 21 17 17 14 14 14 9 8 6 4 5 3 13 10 4 6 8 10 12 5 4 4 6 5 6 7 5 3 10 13 10 10 9 5 4 10 14 19 15 14 12 10 14 12
24 23 22 20 20 17 16 14 13 10 8 4 3 5 4 11 7 2 5 10 6 8 6 6 5 6 6 6 6 6 5 7 13 15 5 5 5 7 12 6 12 17 17 17 10 12 9
24 23 24 21 20 18 17 18 15 14 13 4 5 6 4 8 8 10 2 11 12 12 10 5 6 4 2 4 6 5 4 8 9 14 11 8 5 7 8 8 6 10 11 9 12 15 17
24 23 22 22 22 21 20 19 17 17 15 7 2 4 6 6 8 16 15 11 12 12 13 8 7 6 10 13 10 9 9 5 15 11 11 5 4 6 5 4 4 3 2 3 6 7 10
25 25 25 24 23 23 22 21 20 20 18 8 4 7 7 6 14 10 16 12 18 11 11 11 8 17 14 11 8 11 7 8 7 6 6 4 6 6 6 5 4 5 7 7 9 8 8
24 25 26 27 26 25 24 23 21 22 20 10 4 5 3 6 6 15 15 15 20 18 12 12 14 8 16 18 15 14 16 13 7 5 6 7 5 7 9 11 11 13 12 12 13 15 15
24 25 25 25 27 28 27 26 25 24 22 9 8 5 3 7 12 10 4 19 20 17 16 15 13 12 12 14 12 11 10 9 10 8 5 5 4 5 10 5 9 11 16 17 13 7 7
24 24 24 24 26 27 29 29 28 28 26 11 8 4 5 9 9 12 13 16 17 18 14 11 14 14 5 1 5 11 13 15 14 14 13 7 6 1 2 3 10 2 4 9 10 8 8
24 24 25 25 25 27 28 30 31 31 31 12 9 8 6 8 15 20 18 16 18 16 17 16 10 9 8 1 4 6 7 9 12 18 16 15 8 4 5 10 13 14 8 7 7 6 5
24 24 25 25 25 26 28 29 31 33 33 16 11 9 5 6 15 17 17 15 15 15 14 15 4 7 5 3 4 6 6 3 5 7 13 16 13 8 6 7 6 5 9 4 4 6 6
27 26 23 22 24 24 27 29 30 33 34 16 9 17 9 4 10 14 17 14 11 10 6 7 9 5 5 4 4 5 5 1 5 4 6 8 10 13 12 7 5 4 7 4 9 6 12
23 23 22 20 21 24 25 28 28 31 34 22 12 15 14 5 10 16 16 14 14 14 9 7 5 5 4 8 5 5 5 7 6 3 8 11 9 8 10 7 10 3 3 3 10 10 12
19 16 16 17 19 17 21 26 28 28 32 30 8 11 12 7 4 11 13 16 19 20 9 11 7 8 8 7 6 4 4 2 7 4 6 6 7 3 7 6 5 2 6 7 8 8 9
Wind_Direction
321 324 318 310 316 308 315 325 335 332 324 323 318 319 324 326 324 317 315 314 317 317 315 312 314 326 314 253 261 34 349 139 163 181 196 196 203 217 232 230 214 236 245 243 253 253 254
290 296 294 301 306 326 328 326 325 315 307 307 313 312 317 318 320 317 313 314 311 304 301 300 305 304 278 261 321 257 344 230 206 215 211 206 216 230 284 242 227 223 241 253 255 256 245
286 286 303 318 319 328 332 340 337 321 306 308 310 306 309 309 312 309 309 306 304 297 294 291 283 275 249 248 277 234 264 267 236 243 226 226 245 229 255 251 238 258 252 249 242 248 247
305 290 290 300 313 323 332 321 325 316 323 315 311 299 294 296 300 306 308 302 293 294 297 286 238 231 253 252 266 257 252 253 242 251 241 242 237 248 249 294 227 235 236 249 202 246 218
303 301 287 291 306 303 307 311 317 311 310 312 313 311 298 298 299 303 309 300 296 298 299 197 175 218 267 131 226 252 232 233 220 215 222 228 209 225 209 234 242 219 255 213 250 206 183
288 295 294 284 291 302 305 298 303 306 312 311 312 314 311 308 305 308 313 296 299 229 115 146 228 225 241 242 197 215 178 215 192 181 203 207 203 213 219 214 227 230 231 246 246 159 225
294 284 287 290 277 289 298 296 300 302 308 310 315 316 313 313 308 313 317 310 262 198 307 265 265 265 293 334 279 213 192 195 150 185 198 195 204 211 219 221 238 270 265 257 257 94 249
292 293 294 291 289 277 288 294 294 298 309 310 320 312 311 317 315 317 293 34 59 344 294 265 251 254 256 307 301 195 205 205 192 202 203 176 223 224 235 237 232 233 250 254 260 193 250
287 286 287 286 288 281 280 283 283 306 303 317 315 306 314 319 314 278 358 62 25 338 278 291 256 255 240 212 231 231 206 232 215 219 204 213 209 221 225 219 225 232 241 250 259 216 266
283 281 280 281 275 272 273 290 288 290 302 307 312 310 313 313 259 320 64 9 323 312 283 261 235 246 193 215 225 230 213 246 212 223 211 234 236 209 218 228 219 239 233 258 257 255 257
292 288 281 282 276 268 271 273 278 280 288 300 314 317 307 309 317 284 15 312 309 229 296 45 122 71 159 196 328 174 213 226 240 223 193 208 224 224 229 226 223 248 258 240 247 248 258
283 283 283 283 280 264 265 261 267 273 288 297 309 310 306 230 229 277 308 298 250 233 252 1 73 319 211 220 271 39 179 218 237 233 216 247 274 250 229 210 221 225 213 222 230 243 238
281 277 270 271 279 267 252 255 254 278 286 295 301 303 288 258 187 149 281 247 214 239 28 4 344 324 303 259 220 214 178 188 190 185 218 220 238 249 244 218 213 224 205 205 216 209 241
281 278 286 271 267 278 269 243 264 268 272 290 297 299 255 232 176 210 278 207 232 48 286 320 316 307 257 325 220 185 206 197 220 213 231 218 213 222 223 207 189 203 203 234 240 238 252
277 280 273 272 272 272 265 251 245 252 270 287 300 265 246 204 176 152 214 212 240 228 339 332 318 292 352 348 309 193 180 247 226 216 233 202 231 181 205 219 182 184 231 244 264 264 262
275 279 277 266 268 268 265 259 235 238 260 282 282 268 239 175 162 122 186 232 233 244 11 340 313 356 339 352 1 258 184 15 341 250 232 284 223 212 204 211 214 215 182 187 214 249 248
271 275 269 268 263 269 269 276 253 212 247 275 261 239 214 164 160 182 211 228 214 252 304 320 328 306 316 341 343 358 70 69 15 334 213 234 258 128 159 211 206 205 216 233 254 223 252
274 268 267 268 265 259 265 262 238 223 220 236 241 232 151 152 193 174 215 203 189 226 221 257 274 273 299 328 324 356 42 32 2 3 46 359 304 205 187 111 214 215 221 228 235 205 235
262 260 263 259 260 256 252 253 238 225 204 220 230 232 173 206 213 206 207 214 204 209 221 223 256 248 298 313 307 341 339 6 2 8 0 336 226 217 226 223 204 207 203 239 249 262 261
265 258 252 252 252 251 248 241 237 217 215 201 220 228 203 218 236 234 203 209 201 225 236 232 254 269 272 264 264 281 291 320 341 347 320 267 338 310 283 69 42 176 253 251 252 254 253
262 256 253 249 245 242 242 238 230 215 210 189 216 221 206 184 225 229 217 206 211 201 214 211 239 242 249 261 246 248 265 316 323 357 348 331 243 251 278 279 271 259 261 255 247 254 260
270 259 249 245 240 236 231 229 226 212 205 206 204 210 205 261 241 203 217 201 222 217 193 205 222 235 229 245 250 280 298 296 288 313 344 347 256 249 249 277 274 268 258 257 260 263 254
269 260 252 246 239 231 227 221 218 209 201 209 206 221 279 233 239 223 199 212 224 219 206 234 216 235 242 246 268 285 284 276 268 274 291 296 282 221 252 258 274 269 245 249 257 238 255
266 261 258 246 239 230 224 219 214 209 205 214 194 176 214 240 236 237 226 209 223 205 208 211 229 234 280 259 305 263 256 258 246 244 237 249 225 263 243 220 241 300 322 277 228 281 283
266 260 255 250 240 228 223 217 213 209 205 203 203 199 198 234 236 248 257 244 227 215 219 214 218 258 191 202 278 247 213 234 237 229 213 219 227 215 235 223 272 273 271 231 220 274 17
279 271 263 253 243 230 221 216 211 207 206 200 205 203 207 233 228 233 227 238 227 209 209 223 244 219 144 198 211 230 207 207 177 161 205 201 216 222 181 237 233 49 88 17 296 214 27
277 273 269 253 240 237 223 212 211 203 201 201 200 195 196 236 251 230 223 223 213 200 203 170 179 194 188 182 236 217 219 220 226 210 156 185 203 218 226 247 268 299 307 238 247 36 347
271 262 259 249 242 233 223 209 207 202 198 192 196 190 191 220 247 231 233 238 213 197 187 142 144 176 179 205 224 200 224 206 244 178 176 180 189 189 226 243 258 9 205 255 4 336 337
268 259 254 250 240 229 215 202 200 199 193 189 186 188 189 218 283 249 244 257 219 185 178 179 197 154 185 210 212 210 196 225 231 237 202 230 220 217 207 214 99 92 4 40 15 342 340